DW9864 Weather Reports


Display with metric or nautical units.
time (UTC)temp
F
wind
direction
speed
MPH
gust
MPH
rain 1hr
in
rain 24hr
in
rain mn
in
humidity
%
barometer
mb
20260503213503 59 317 2.0 4.0 0.00 0.07 0.07 90 1012.4
20260503213003 59 318 1.0 3.0 0.00 0.07 0.07 91 1012.3
20260503212517 60 319 0.0 2.0 0.00 0.07 0.07 91 1012.3
20260503212003 60 319 0.0 2.0 0.00 0.07 0.07 91 1012.3
20260503211503 60 319 0.0 2.0 0.00 0.07 0.07 90 1012.4
20260503211003 60 0 0.0 0.0 0.00 0.07 0.07 90 1012.3
20260503210503 60 0 0.0 0.0 0.00 0.07 0.07 90 1012.3
20260503210003 60 319 0.0 1.0 0.00 0.07 0.07 90 1012.3
20260503205517 60 319 0.0 1.0 0.01 0.07 0.07 90 1012.4
20260503205003 60 319 0.0 2.0 0.01 0.07 0.07 90 1012.4
20260503204503 60 319 1.0 2.0 0.01 0.07 0.07 90 1012.4
20260503204003 60 319 0.0 1.0 0.01 0.07 0.07 90 1012.4
20260503203503 60 319 0.0 1.0 0.01 0.07 0.07 90 1012.5
20260503203003 60 319 0.0 1.0 0.01 0.07 0.07 90 1012.5
20260503202517 60 319 0.0 1.0 0.01 0.07 0.07 90 1012.4
20260503202003 60 319 1.0 2.0 0.01 0.07 0.07 89 1012.3
20260503201503 60 319 1.0 2.0 0.01 0.07 0.07 89 1012.4
20260503201003 60 319 0.0 2.0 0.01 0.08 0.07 90 1012.3
20260503200503 60 319 1.0 2.0 0.02 0.08 0.07 89 1012.3
20260503200003 60 319 1.0 2.0 0.02 0.08 0.07 90 1012.3
20260503195503 60 319 1.0 3.0 0.02 0.07 0.06 89 1012.1
20260503195003 60 319 1.0 3.0 0.03 0.07 0.06 89 1012.1
20260503194503 61 321 1.0 5.0 0.03 0.07 0.06 89 1012.1
20260503194017 61 322 2.0 8.0 0.03 0.07 0.06 89 1012.2
20260503193503 60 321 3.0 9.0 0.03 0.07 0.06 89 1012.0
20260503193003 61 327 2.0 9.0 0.03 0.07 0.06 89 1012.0
20260503192503 61 332 4.0 11.0 0.04 0.07 0.06 89 1011.9
20260503192003 61 327 5.0 11.0 0.04 0.07 0.06 88 1011.9
20260503191503 61 325 5.0 11.0 0.04 0.07 0.06 88 1011.8
20260503191017 61 325 5.0 11.0 0.04 0.07 0.06 87 1011.8
20260503190503 61 324 5.0 11.0 0.03 0.06 0.06 86 1011.8
20260503190017 61 323 4.0 9.0 0.02 0.06 0.05 86 1011.6
20260503185503 62 322 5.0 9.0 0.02 0.05 0.04 85 1011.7
20260503185003 62 321 4.0 11.0 0.02 0.04 0.03 85 1011.6
20260503184517 62 322 1.0 11.0 0.02 0.04 0.03 86 1011.5
20260503184003 63 333 0.0 2.0 0.02 0.04 0.03 86 1011.3
20260503183503 63 333 0.0 2.0 0.02 0.04 0.03 86 1011.3
20260503183003 63 333 1.0 2.0 0.02 0.04 0.03 86 1011.2
20260503182503 63 333 1.0 3.0 0.01 0.03 0.02 85 1011.2
20260503182003 63 333 1.0 3.0 0.01 0.03 0.02 84 1011.1
20260503181504 63 333 0.0 1.0 0.01 0.03 0.02 84 1011.1
20260503181003 63 332 1.0 3.0 0.01 0.03 0.02 83 1011.0
20260503180503 63 332 1.0 3.0 0.01 0.03 0.02 82 1010.9
20260503180004 64 331 1.0 2.0 0.01 0.03 0.02 83 1010.9
20260503175517 64 331 1.0 2.0 0.01 0.03 0.02 82 1010.8
20260503175003 64 331 1.0 4.0 0.00 0.02 0.02 82 1010.8
20260503174503 64 331 2.0 4.0 0.00 0.02 0.02 80 1010.7
20260503174003 64 331 1.0 3.0 0.00 0.02 0.02 80 1010.5
20260503173503 64 331 0.0 1.0 0.00 0.02 0.02 79 1010.5
20260503173003 64 331 0.0 2.0 0.00 0.02 0.02 78 1010.5
20260503172503 65 331 1.0 2.0 0.00 0.02 0.02 78 1010.6
20260503172017 65 331 1.0 3.0 0.00 0.02 0.02 77 1010.6
20260503171503 65 331 1.0 3.0 0.00 0.02 0.02 76 1010.7
20260503171003 65 331 1.0 2.0 0.00 0.02 0.02 76 1010.7
20260503170503 66 331 1.0 2.0 0.00 0.02 0.02 74 1010.6
20260503151003 64 100 1.0 3.0 0.00 0.05 0.02 77 1011.6
20260503150503 63 97 1.0 3.0 0.00 0.05 0.02 77 1011.9
20260503131003 62 305 6.0 18.0 0.00 0.03 0.00 77 1013.3
20260503130503 64 302 7.0 17.0 0.00 0.03 0.00 74 1013.2
20260503110503 69 170 5.0 12.0 0.00 0.03 0.00 64 1013.0
20260503090503 66 102 2.0 4.0 0.00 0.03 0.00 79 1013.6
20260503081517 62 314 0.0 2.0 0.00 0.03 0.00 87 1013.7
20260503081003 62 314 1.0 2.0 0.00 0.03 0.00 88 1013.8
20260503080517 61 315 0.0 2.0 0.00 0.03 0.00 89 1013.8
20260503072517 58 0 0.0 0.0 0.00 0.03 0.00 93 1013.8
20260503072003 58 0 0.0 0.0 0.00 0.03 0.00 93 1013.8
20260503071517 58 0 0.0 0.0 0.00 0.03 0.00 93 1013.8
20260503071003 57 0 0.0 0.0 0.00 0.03 0.00 93 1013.9
20260503070503 57 0 0.0 0.0 0.00 0.03 0.00 93 1013.9
20260503055003 56 0 0.0 0.0 0.00 0.03 0.00 92 1013.5
20260503054503 56 317 0.0 2.0 0.00 0.03 0.00 91 1013.4
20260503054017 56 317 0.0 2.0 0.00 0.03 0.00 91 1013.4
20260503053503 56 317 1.0 3.0 0.00 0.03 0.00 91 1013.5
20260503053003 56 317 1.0 3.0 0.00 0.03 0.00 91 1013.3
20260503052503 56 317 0.0 2.0 0.00 0.03 0.00 91 1013.4
20260503052003 56 317 1.0 4.0 0.00 0.03 0.00 91 1013.4
20260503051503 56 317 1.0 4.0 0.00 0.03 0.00 91 1013.4
20260503051003 56 317 1.0 2.0 0.00 0.03 0.00 90 1013.4
20260503050503 56 317 1.0 2.0 0.00 0.03 0.00 91 1013.2
20260503050003 56 317 0.0 1.0 0.00 0.03 0.00 91 1013.2
20260503045503 56 317 0.0 1.0 0.00 0.03 0.00 91 1013.2
20260503045003 56 0 0.0 0.0 0.00 0.03 0.00 90 1013.3
20260503044503 56 0 0.0 0.0 0.00 0.03 0.00 90 1013.3
20260503044003 56 317 0.0 1.0 0.00 0.03 0.00 90 1013.2
20260503043503 57 317 0.0 1.0 0.00 0.03 0.00 90 1013.2
20260503043003 57 317 0.0 1.0 0.00 0.03 0.00 90 1013.3
20260503042503 57 317 0.0 2.0 0.00 0.03 0.00 90 1013.3
20260503042003 57 317 1.0 2.0 0.00 0.03 0.00 90 1013.4
20260503041503 57 317 0.0 2.0 0.00 0.03 0.00 90 1013.5
20260503041003 57 317 0.0 1.0 0.00 0.03 0.00 90 1013.4
20260503040503 57 0 0.0 0.0 0.00 0.03 0.00 90 1013.5
20260503040017 57 317 0.0 1.0 0.00 0.03 0.00 90 1013.4
20260503035503 57 317 0.0 1.0 0.00 0.03 0.00 90 1013.4
20260503035003 57 317 0.0 1.0 0.00 0.03 0.00 90 1013.5
20260503034517 58 317 0.0 2.0 0.00 0.03 0.00 90 1013.4
20260503034003 58 317 1.0 2.0 0.00 0.03 0.00 90 1013.4
20260503033503 57 317 1.0 2.0 0.00 0.03 0.00 89 1013.4
20260503033003 58 317 0.0 2.0 0.00 0.03 0.00 89 1013.3
20260503032503 58 317 0.0 2.0 0.00 0.03 0.00 89 1013.2
20260503032003 58 317 0.0 2.0 0.00 0.03 0.00 89 1013.3
20260503031503 58 317 0.0 2.0 0.00 0.03 0.00 89 1013.4
20260503031017 58 317 1.0 2.0 0.00 0.03 0.00 89 1013.3
20260503030503 58 317 1.0 4.0 0.00 0.03 0.00 88 1013.4
20260503030017 58 329 2.0 6.0 0.00 0.03 0.00 88 1013.4
20260503025503 59 331 3.0 6.0 0.00 0.03 0.00 89 1013.5
20260503025003 59 328 4.0 8.0 0.00 0.03 0.00 89 1013.5
20260503024503 59 326 4.0 8.0 0.00 0.03 0.00 89 1013.5
20260503024003 59 321 3.0 7.0 0.00 0.03 0.00 88 1013.5
20260503023503 59 321 1.0 5.0 0.00 0.03 0.00 87 1013.6
20260503023003 58 50 0.0 2.0 0.00 0.03 0.00 86 1013.6
20260503022503 58 50 0.0 1.0 0.00 0.03 0.00 86 1013.6
20260503022003 58 52 0.0 1.0 0.00 0.03 0.00 85 1013.6
20260503021503 58 57 0.0 2.0 0.00 0.03 0.00 85 1013.8
20260503021003 58 58 1.0 2.0 0.00 0.03 0.00 84 1013.8
20260503020503 59 58 1.0 2.0 0.00 0.03 0.00 84 1013.8
20260503020003 59 58 0.0 2.0 0.00 0.03 0.00 84 1013.8
20260503015503 59 58 0.0 2.0 0.00 0.03 0.00 84 1013.7
20260503015003 59 58 1.0 2.0 0.00 0.03 0.00 84 1013.8
20260503014503 59 58 0.0 2.0 0.00 0.03 0.00 84 1013.8
20260503014003 59 58 0.0 2.0 0.00 0.03 0.00 84 1013.8
20260503013503 60 58 0.0 1.0 0.00 0.03 0.00 84 1013.8
20260503013017 60 44 0.0 3.0 0.00 0.03 0.00 84 1013.8
20260503012503 60 338 1.0 4.0 0.00 0.03 0.00 83 1013.9
20260503012003 60 339 2.0 4.0 0.00 0.03 0.00 83 1013.8
20260503011503 60 353 2.0 5.0 0.00 0.03 0.00 84 1014.0
20260503011004 60 351 2.0 5.0 0.00 0.03 0.00 85 1014.0
20260503010503 60 358 1.0 3.0 0.00 0.03 0.00 85 1014.1
20260503010003 60 359 0.0 3.0 0.00 0.03 0.00 85 1014.1
20260503005503 60 356 0.0 1.0 0.00 0.03 0.00 85 1014.1
20260503005017 60 355 0.0 3.0 0.00 0.03 0.00 85 1014.1
20260503004503 60 350 1.0 4.0 0.00 0.03 0.00 85 1014.1
20260503004003 60 332 2.0 8.0 0.00 0.03 0.00 85 1014.2
20260503003503 60 329 3.0 8.0 0.00 0.03 0.00 86 1014.2
20260503003003 60 332 5.0 12.0 0.00 0.03 0.00 87 1014.1
20260503002503 60 329 6.0 12.0 0.00 0.03 0.00 88 1014.3
20260503002003 60 323 7.0 12.0 0.00 0.03 0.00 88 1014.4
20260503001503 60 318 7.0 11.0 0.00 0.03 0.00 87 1014.5
20260503001003 60 318 7.0 11.0 0.00 0.03 0.00 87 1014.4
20260503000503 61 323 8.0 12.0 0.00 0.03 0.00 86 1014.5
20260503000017 61 326 8.0 12.0 0.00 0.03 0.00 85 1014.5
20260502235503 61 324 7.0 12.0 0.00 0.03 0.00 84 1014.4
20260502235003 62 322 6.0 12.0 0.00 0.03 0.00 82 1014.5
20260502234503 62 325 5.0 10.0 0.00 0.03 0.00 80 1014.4
20260502234003 63 325 3.0 11.0 0.00 0.03 0.00 77 1014.5
20260502233517 63 317 1.0 11.0 0.00 0.03 0.00 74 1014.5
20260502233003 63 282 1.0 4.0 0.00 0.03 0.00 72 1014.5
20260502232503 63 292 2.0 6.0 0.00 0.03 0.00 72 1014.6
20260502232003 63 289 2.0 6.0 0.00 0.03 0.00 72 1014.5
20260502231503 63 220 3.0 7.0 0.00 0.03 0.00 73 1014.4
20260502231003 63 173 3.0 8.0 0.00 0.03 0.00 73 1014.5
20260502230503 63 172 4.0 8.0 0.00 0.03 0.00 73 1014.4
20260502230003 63 177 5.0 14.0 0.00 0.03 0.00 73 1014.3
20260502225503 63 174 5.0 14.0 0.00 0.03 0.00 73 1014.2
20260502225017 62 179 4.0 10.0 0.00 0.03 0.00 74 1014.2
20260502224503 62 188 4.0 8.0 0.00 0.03 0.00 75 1014.1
20260502224003 62 188 4.0 9.0 0.00 0.03 0.00 75 1014.0
20260502223503 62 170 5.0 9.0 0.00 0.03 0.00 76 1014.1
20260502223003 62 175 4.0 9.0 0.00 0.03 0.00 75 1014.1
20260502222503 62 181 4.0 8.0 0.00 0.03 0.00 75 1014.0
20260502222017 62 192 4.0 8.0 0.00 0.03 0.00 75 1014.1
20260502221503 62 199 4.0 9.0 0.00 0.03 0.00 75 1014.1
20260502221003 62 200 3.0 9.0 0.00 0.03 0.00 75 1014.0
20260502220503 62 214 3.0 9.0 0.00 0.03 0.00 75 1014.0
20260502220003 62 204 4.0 9.0 0.00 0.03 0.00 75 1014.1
20260502215503 62 198 4.0 9.0 0.00 0.03 0.03 76 1014.1
20260502215003 62 193 3.0 8.0 0.00 0.03 0.03 76 1014.0
20260502214503 62 182 3.0 8.0 0.00 0.03 0.03 77 1014.0
20260502214003 62 181 3.0 8.0 0.00 0.03 0.03 77 1013.9